Puyallup, WA

2:34 AM PDT on August 25, 2016 (GMT -0700)
Pierce County - Thun Field

Weather History for KPLU - October, 2012

Change the Weather History Date:

Wednesday, October 17, 2012

  Actual Average (KTCM) Record (KTCM)
Temperature  
Mean Temperature 49 °F -  
Max Temperature 59 °F 58 °F 73 °F (2002)
Min Temperature 39 °F 39 °F 31 °F (2010)
Degree Days  
Heating Degree Days 16    
Moisture  
Dew Point 42 °F    
Average Humidity 74    
Maximum Humidity 100    
Minimum Humidity 45    
Precipitation  
Precipitation 0.00 in - - ()
Sea Level Pressure  
Sea Level Pressure 30.26 in    
Wind  
Wind Speed 0 mph (North)    
Max Wind Speed 0 mph    
Max Gust Speed -    
Visibility 10 miles    
Events      
Averages and records for this station are not official NWS values.
T = Trace of Precipitation, MM = Missing Value Source: NWS Daily Summary

Daily Weather History Graph

Daily Weather History Graph

Search for Another Location

Airport or City:

Trip Planner

Search our weather history database for the weather conditions in past years. The results will help you decide how hot, cold, wet, or windy it might be!

Date:

Astronomy

Oct. 17, 2012 Rise Set
Actual Time 7:31 AM PDT 6:16 PM PDT
Civil Twilight 7:00 AM PDT 6:47 PM PDT
Nautical Twilight 6:24 AM PDT 7:23 PM PDT
Astronomical Twilight 5:49 AM PDT 7:58 PM PDT
Moon 10:24 AM PDT (10/17) 7:44 PM PDT (10/17)
Length of Visible Light 11h 47m
Length of Day
10h 45m
Waxing Crescent, 8% of the Moon is Illuminated
Oct 17
Waxing Crescent
Oct 21
First Quarter
Oct 29
Full
Nov 6
Last Quarter
Nov 13
New

Hourly Weather History & Observations

Time (PDT) Temp. Dew Point Humidity Pressure Visibility Wind Dir Wind Speed Gust Speed Precip Events Conditions
8:35 AM 39.2 °F 39.2 °F 100% 30.33 in 10.0 mi Calm Calm - N/A   Clear
8:55 AM 42.8 °F 42.8 °F 100% 30.30 in 10.0 mi Calm Calm - N/A   Clear
9:15 AM 42.8 °F 41.0 °F 93% 30.32 in 10.0 mi Calm Calm - N/A   Clear
9:35 AM 46.4 °F 41.0 °F 81% 30.33 in 10.0 mi Calm Calm - N/A   Clear
9:55 AM 48.2 °F 41.0 °F 76% 30.31 in 10.0 mi Calm Calm - N/A   Clear
10:15 AM 50.0 °F 41.0 °F 71% 30.33 in 10.0 mi Calm Calm - N/A   Clear
10:35 AM 50.0 °F 41.0 °F 71% 30.33 in 10.0 mi Calm Calm - N/A   Clear
10:55 AM 51.8 °F 41.0 °F 67% 30.33 in 10.0 mi Calm Calm - N/A   Clear
11:15 AM 50.0 °F 39.2 °F 66% 30.32 in 10.0 mi Calm Calm - N/A   Clear
11:35 AM 53.6 °F 41.0 °F 62% 30.31 in 10.0 mi Calm Calm - N/A   Clear
11:55 AM 55.4 °F 39.2 °F 54% 30.30 in 10.0 mi Calm Calm - N/A   Clear
12:15 PM 55.4 °F 39.2 °F 54% 30.30 in 10.0 mi Calm Calm - N/A   Clear
12:35 PM 55.4 °F 39.2 °F 54% 30.30 in 10.0 mi Calm Calm - N/A   Clear
12:55 PM 57.2 °F 39.2 °F 51% 30.29 in 10.0 mi Calm Calm - N/A   Clear
1:15 PM 57.2 °F 41.0 °F 55% 30.29 in 10.0 mi Calm Calm - N/A   Clear
1:35 PM 57.2 °F 41.0 °F 55% 30.28 in 10.0 mi Calm Calm - N/A   Clear
1:55 PM 57.2 °F 39.2 °F 51% 30.27 in 10.0 mi Calm Calm - N/A   Clear
2:15 PM 59.0 °F 39.2 °F 48% 30.25 in 10.0 mi Calm Calm - N/A   Clear
2:35 PM 59.0 °F 37.4 °F 45% 30.25 in 10.0 mi Calm Calm - N/A   Clear
2:55 PM 59.0 °F 39.2 °F 48% 30.25 in 10.0 mi Calm Calm - N/A   Clear
3:15 PM 57.2 °F 41.0 °F 55% 30.25 in 10.0 mi Calm Calm - N/A   Clear
3:35 PM 59.0 °F 41.0 °F 51% 30.25 in 10.0 mi Calm Calm - N/A   Clear
3:55 PM 57.2 °F 41.0 °F 55% 30.25 in 10.0 mi Calm Calm - N/A   Clear
4:15 PM 57.2 °F 41.0 °F 55% 30.25 in 10.0 mi Calm Calm - N/A   Clear
4:35 PM 57.2 °F 41.0 °F 55% 30.25 in 10.0 mi Calm Calm - N/A   Clear
4:55 PM 55.4 °F 41.0 °F 58% 30.24 in 10.0 mi Calm Calm - N/A   Clear
5:15 PM 55.4 °F 42.8 °F 63% 30.24 in 10.0 mi Calm Calm - N/A   Clear
5:35 PM 55.4 °F 42.8 °F 63% 30.24 in 10.0 mi Calm Calm - N/A   Clear
5:55 PM 55.4 °F 42.8 °F 63% 30.23 in 10.0 mi Calm Calm - N/A   Clear
6:15 PM 53.6 °F 42.8 °F 67% 30.24 in 10.0 mi Calm Calm - N/A   Clear
6:35 PM 50.0 °F 44.6 °F 82% 30.23 in 10.0 mi Calm Calm - N/A   Clear
6:55 PM 48.2 °F 44.6 °F 87% 30.23 in 10.0 mi Calm Calm - N/A   Clear
7:15 PM 48.2 °F 44.6 °F 87% 30.23 in 10.0 mi Calm Calm - N/A   Scattered Clouds
7:35 PM 46.4 °F 44.6 °F 93% 30.23 in 10.0 mi Calm Calm - N/A   Mostly Cloudy
7:55 PM 46.4 °F 44.6 °F 93% 30.24 in 10.0 mi Calm Calm - N/A   Mostly Cloudy
8:15 PM 48.2 °F 44.6 °F 87% 30.23 in 10.0 mi Calm Calm - N/A   Mostly Cloudy
8:35 PM 48.2 °F 44.6 °F 87% 30.24 in 10.0 mi Calm Calm - N/A   Mostly Cloudy
8:55 PM 48.2 °F 44.6 °F 87% 30.24 in 10.0 mi Calm Calm - N/A   Mostly Cloudy
9:15 PM 48.2 °F 44.6 °F 87% 30.23 in 10.0 mi Calm Calm - N/A   Scattered Clouds
9:35 PM 44.6 °F 44.6 °F 100% 30.23 in 10.0 mi Calm Calm - N/A   Partly Cloudy
9:55 PM 44.6 °F 44.6 °F 100% 30.22 in 10.0 mi Calm Calm - N/A   Clear
10:15 PM 44.6 °F 42.8 °F 93% 30.23 in 10.0 mi Calm Calm - N/A   Clear
10:35 PM 44.6 °F 44.6 °F 100% 30.22 in 10.0 mi Calm Calm - N/A   Clear
10:55 PM 44.6 °F 44.6 °F 100% 30.22 in 10.0 mi Calm Calm - N/A   Clear
11:15 PM 44.6 °F 42.8 °F 93% 30.21 in 10.0 mi Calm Calm - N/A   Clear
11:35 PM 42.8 °F 42.8 °F 100% 30.21 in 10.0 mi Calm Calm - N/A   Clear
11:55 PM 42.8 °F 42.8 °F 100% 30.21 in 10.0 mi Calm Calm - N/A   Clear